Lid_Strength_Index
2 2 3 3 2 3 4 5 4 5 5 6 5 5 5 5 6 5 5 5 6 6
2 3 2 3 3 4 4 5 6 6 6 6 6 6 6 6 7 5 6 6 6 6
3 4 4 5 5 6 6 6 6 6 6 6 6 6 6 7 7 6 6 6 6 7
6 7 6 7 7 7 7 7 6 6 6 6 6 7 7 7 6 6 6 6 7 7
7 7 8 8 8 8 8 7 7 6 7 8 8 8 7 7 7 6 7 7 8 8
8 8 8 8 8 8 7 7 7 7 9 10 10 10 9 9 9 8 8 7 8 9
8 8 8 8 7 7 6 7 8 9 10 11 11 11 11 11 11 9 8 8 9 9
8 8 7 7 6 7 6 7 9 11 11 12 12 12 12 12 11 10 9 9 9 8
7 7 7 6 7 6 7 8 10 10 11 13 12 12 11 12 12 10 9 10 9 9
8 7 7 7 7 7 7 9 11 12 13 14 14 12 12 10 12 10 9 9 9 9
8 8 8 7 7 7 8 9 11 12 13 14 12 12 12 10 10 9 8 9 10 10
8 8 7 8 8 8 9 9 10 11 12 14 14 12 12 11 12 11 9 9 10 10
6 7 8 9 9 9 9 10 10 11 11 11 14 12 11 12 12 13 11 11 11 9
8 9 9 9 9 9 9 10 10 11 12 13 14 13 11 10 13 13 12 11 11 11